Flag for Germany Weather past 2 weeks in Wertheim, Baden-Württemberg, Germany

Now
37 °F

Passing clouds.


Feels Like: 37 °F
Forecast: 31 / 48 °F
Wind: 2 mph from Southeast

Location: Wuerzburg

Current Time: Feb 28, 2015 at 8:40:09 PM

Latest Report: Feb 28, 2015 at 8:00 PM


Visibility: 16 mi

Pressure: 30.08 "Hg

Humidity: 80%

Dew point: 31 °F

Location of WertheimLocation

Historic Weather in Wertheim — Graph

°F

Wertheim temperature yesterday

Maximum temperature yesterday: 42 °F (at 3:00 PM)
Minimum temperature yesterday: 31 °F (at 2:00 AM)
Average temperature yesterday: 36 °F

Past Weeks' High & Low Weather Summary

 TemperatureHumidityPressure
High53 °F (Feb 20, 4:00 PM)100% (Feb 17, 3:00 AM)30.79 "Hg (Feb 17, 3:00 AM)
Low25 °F (Feb 15, 7:00 AM)44% (Feb 26, 4:00 PM)29.50 "Hg (Feb 21, 8:00 AM)
Average35 °F86%30.06 "Hg
* Reported Feb 13 7:00 PM — Feb 28 7:00 PM, Wertheim, Weather by CustomWeather, © 2015

Note: Actual official high and low records may vary slightly from our data, if they occured in-between our weather recording intervals... More about our weather records

Advertising

Wertheim weather history for previous 24 hours

 ConditionsComfort  
Time TempWeatherWind HumidityBarometerVisibility
7:00 PM
Sat, Feb 28
38 °FPassing clouds.2 mph74%30.09 "Hg22 mi
6:00 PM41 °FPassing clouds.2 mph63%30.09 "Hg25 mi
5:00 PM42 °FPartly sunny.3 mph60%30.09 "Hg28 mi
4:00 PM42 °FOvercast.5 mph56%30.11 "Hg28 mi
3:00 PM42 °FPartly sunny.2 mph58%30.11 "Hg28 mi
2:00 PM42 °FOvercast.3 mph68%30.14 "Hg25 mi
1:00 PM42 °FScattered clouds.5 mph64%30.15 "Hg28 mi
12:00 PM41 °FPartly sunny.1 mph70%30.18 "Hg11 mi
11:00 AM40 °FPartly sunny.3 mph81%30.19 "Hg11 mi
10:00 AM39 °FPassing clouds.2 mph88%30.19 "Hg6 mi
9:00 AM36 °FScattered clouds.No wind95%30.20 "Hg5 mi
8:00 AM35 °FOvercast.2 mph97%30.20 "Hg7 mi
7:00 AM35 °FOvercast.2 mph97%30.19 "Hg7 mi
6:00 AM36 °FOvercast.1 mph97%30.18 "Hg6 mi
5:00 AM36 °FOvercast.3 mph96%30.17 "Hg6 mi
4:00 AM36 °FOvercast.2 mph93%30.16 "Hg7 mi
3:00 AM36 °FOvercast.2 mph95%30.15 "Hg7 mi
2:00 AM36 °FLight rain. Overcast.2 mph97%30.15 "Hg6 mi
1:00 AM36 °FLight rain. Low clouds.3 mph97%30.15 "Hg6 mi
12:00 AM36 °FLight rain. Low clouds.3 mph97%30.14 "Hg5 mi
11:00 PM
Fri, Feb 27
36 °FRain. Low clouds.3 mph97%30.12 "Hg5 mi
10:00 PM36 °FRain. Low clouds.3 mph97%30.10 "Hg6 mi
9:00 PM36 °FRain. Low clouds.5 mph97%30.08 "Hg6 mi
8:00 PM37 °FRain. Low clouds.5 mph97%30.06 "Hg6 mi
Weather by CustomWeather, © 2015

See weather overviewHow to use our weather pages